Location: Alpha Ridge Park
(39.3209°N, 76.9128°W)
Time: 06:46:24
(UTC-04:00)

Vanguard 2 Rocket - Pass Details

Date: 21 May 2019
Orbit: 554 x 3326 km, 32.9° (Epoch: 19 June)

Event Time Altitude Azimuth Distance (km) Brightness Sun altitude
Rises 09:37:12 0° 259° (WSW) 6,518 10.8 41.9°
Reaches altitude 10° 09:42:12 10° 256° (WSW) 5,108 10.4 42.9°
Maximum altitude 09:55:16 60° 182° (S) 1,771 9.1 45.4°
Drops below altitude 10° 10:02:32 10° 104° (ESE) 2,945 10.5 46.7°
Sets 10:04:41 0° 100° (E) 3,655 10.7 47.2°
